SCP
0 0 0 0 0 0 0 0 0 0 0 0 0 0 0 0 0 0 0 0 0 0
0 0 0 0 0 0 0 0 0 0 0 0 0 0 0 0 0 0 0 0 0 0
0 0 0 0 0 0 0 0 0 0 0 0 0 0 0 0 0 0 0 0 0 0
0 0 0 0 0 0 0 0 0 0 0 0 0 0 0 0 0 0 0 0 0 0
0 0 0 0 0 0 0 0 0 0 0 0 0 0 0 0 0 0 0 0 0 0
0 0 0 0 0 0 0 0 0 0 0 0 0 0 0 0 0 0 0 0 0 0
0 0 0 0 0 0 0 0 0 0 0 0 0 0 0 0 0 0 0 0 0 0
0 0 0 0 0 0 0 0 0 0 0 0 0 0 0 0 0 0 0 0 0 0
0 -0 -0 -0 -0 -0 0 0 0 0 0 0 0 0 0 0 0 0 0 0 0 0
-0 -0 -0 -0 -0 -0 -0 -0 0 0 0 0 0 0 0 0 0 0 0 0 0 0
-0 -0 -0 -0 -0 -0 -0 -0 -0 0 0 0 0 0 0 0 0 0 0 0 0 0
-0 -0 -0 -0 -0 -0 -0 -0 -0 0 0 0 0 0 0 0 0 0 0 0 0 0
-0 -0 -0 -0 -0 -0 -0 -0 -0 0 0 0 0 0 0 0 0 0 0 0 0 0
-0 -0 -0 -0 0 0 0 0 0 0 0 0 0 0 0 0 0 0 0 0 0 0
Wind_Speed_500mb
66 74 78 77 73 78 86 89 91 92 90 84 79 81 85 91 94 95 99 101 103 102
45 52 60 66 72 74 67 70 75 89 91 86 83 79 80 86 88 91 97 100 104 104
10 20 32 41 55 68 71 69 74 79 86 89 88 86 83 84 85 91 93 97 103 104
19 20 23 30 37 43 54 62 68 71 79 85 90 90 93 90 86 90 91 94 98 103
37 36 33 34 34 34 40 45 51 57 70 76 86 94 91 94 95 94 94 94 96 100
48 49 50 49 47 48 49 46 47 52 57 63 73 87 96 94 93 97 98 96 97 98
59 63 62 61 61 58 57 60 60 62 65 69 72 75 89 89 93 99 100 100 100 100
70 74 78 79 77 73 69 66 64 67 67 68 75 79 82 83 84 94 101 103 103 102
84 90 96 97 96 94 90 81 76 74 73 76 78 80 78 81 77 87 99 103 110 110
96 102 108 113 114 113 109 103 97 90 84 84 84 85 85 80 74 84 93 104 109 116
113 118 122 125 125 123 120 119 114 109 103 99 98 92 88 88 84 84 92 97 109 118
122 128 129 130 127 124 124 123 122 121 118 114 114 103 96 89 94 95 97 96 103 112
108 112 118 119 124 124 119 125 128 131 128 125 125 122 106 95 94 103 104 104 104 105
98 104 109 115 116 121 125 126 129 128 132 130 129 127 123 107 96 103 105 105 110 113
Wind_Direction_500mb
276 273 274 278 282 286 288 292 292 290 288 286 283 279 275 271 270 268 266 264 264 264
293 293 292 292 291 288 289 292 296 293 291 291 289 286 281 276 274 272 270 268 266 265
322 285 286 289 291 293 292 291 291 292 292 292 290 288 284 281 279 274 272 270 268 267
348 333 318 302 297 291 286 287 289 291 293 292 291 289 284 281 279 276 274 271 270 269
353 344 337 331 328 322 307 294 287 286 289 291 290 288 284 284 283 279 274 272 270 268
351 344 340 334 325 319 314 311 303 297 289 289 289 286 280 277 274 273 273 274 273 270
344 341 335 329 326 321 315 310 304 301 297 294 289 282 279 276 274 273 272 269 267 268
335 332 331 328 323 320 316 311 307 300 296 291 288 287 283 274 273 274 272 270 268 268
327 325 324 322 321 318 317 313 308 302 299 294 290 286 286 287 278 273 271 269 269 269
319 318 317 316 315 314 313 312 309 304 301 295 291 289 289 287 286 278 267 266 266 266
313 311 310 310 309 309 308 307 306 303 302 298 292 291 290 290 286 276 272 266 264 265
308 306 306 305 304 304 303 302 301 299 298 298 295 292 290 289 288 283 277 271 264 262
309 308 306 304 302 300 299 296 295 294 293 292 292 292 290 288 286 285 280 276 267 258
315 312 309 306 303 300 299 296 291 290 288 287 285 287 289 289 284 282 281 274 270 264
Wind_Speed_850mb
66 74 78 77 73 78 86 89 91 92 90 84 79 81 85 91 94 95 99 101 103 102
45 52 60 66 72 74 67 70 75 89 91 86 83 79 80 86 88 91 97 100 104 104
10 20 32 41 55 68 71 69 74 79 86 89 88 86 83 84 85 91 93 97 103 104
19 20 23 30 37 43 54 62 68 71 79 85 90 90 93 90 86 90 91 94 98 103
37 36 33 34 34 34 40 45 51 57 70 76 86 94 91 94 95 94 94 94 96 100
48 49 50 49 47 48 49 46 47 52 57 63 73 87 96 94 93 97 98 96 97 98
59 63 62 61 61 58 57 60 60 62 65 69 72 75 89 89 93 99 100 100 100 100
70 74 78 79 77 73 69 66 64 67 67 68 75 79 82 83 84 94 101 103 103 102
84 90 96 97 96 94 90 81 76 74 73 76 78 80 78 81 77 87 99 103 110 110
96 102 108 113 114 113 109 103 97 90 84 84 84 85 85 80 74 84 93 104 109 116
113 118 122 125 125 123 120 119 114 109 103 99 98 92 88 88 84 84 92 97 109 118
122 128 129 130 127 124 124 123 122 121 118 114 114 103 96 89 94 95 97 96 103 112
108 112 118 119 124 124 119 125 128 131 128 125 125 122 106 95 94 103 104 104 104 105
98 104 109 115 116 121 125 126 129 128 132 130 129 127 123 107 96 103 105 105 110 113
Wind_Direction_850mb
276 273 274 278 282 286 288 292 292 290 288 286 283 279 275 271 270 268 266 264 264 264
293 293 292 292 291 288 289 292 296 293 291 291 289 286 281 276 274 272 270 268 266 265
322 285 286 289 291 293 292 291 291 292 292 292 290 288 284 281 279 274 272 270 268 267
348 333 318 302 297 291 286 287 289 291 293 292 291 289 284 281 279 276 274 271 270 269
353 344 337 331 328 322 307 294 287 286 289 291 290 288 284 284 283 279 274 272 270 268
351 344 340 334 325 319 314 311 303 297 289 289 289 286 280 277 274 273 273 274 273 270
344 341 335 329 326 321 315 310 304 301 297 294 289 282 279 276 274 273 272 269 267 268
335 332 331 328 323 320 316 311 307 300 296 291 288 287 283 274 273 274 272 270 268 268
327 325 324 322 321 318 317 313 308 302 299 294 290 286 286 287 278 273 271 269 269 269
319 318 317 316 315 314 313 312 309 304 301 295 291 289 289 287 286 278 267 266 266 266
313 311 310 310 309 309 308 307 306 303 302 298 292 291 290 290 286 276 272 266 264 265
308 306 306 305 304 304 303 302 301 299 298 298 295 292 290 289 288 283 277 271 264 262
309 308 306 304 302 300 299 296 295 294 293 292 292 292 290 288 286 285 280 276 267 258
315 312 309 306 303 300 299 296 291 290 288 287 285 287 289 289 284 282 281 274 270 264